Location: Aultman
(40.9284°N, 81.4173°W)
Time: 09:06:31
(UTC+00:00)

Cosmos 2279 Rocket - Pass Details

Date: 24 January 2021
Orbit: 963 x 979 km, 82.9° (Epoch: 02 March)

Event Time Altitude Azimuth Distance (km) Brightness Sun altitude
Rises 23:01:29 0° 350° (N) 3,690 6.9 -5.7°
Reaches altitude 10° 23:04:01 10° 349° (N) 2,737 6.3 -6.2°
Maximum altitude 23:10:16 76° 266° (W) 1,008 4.3 -7.3°
Drops below altitude 10° 23:16:28 10° 181° (S) 2,710 6.6 -8.4°
Sets 23:18:58 0° 180° (S) 3,651 7.2 -8.8°
